Peosta, IA

9:04 PM CST on February 20, 2017 (GMT -0600)
Dubuque Regional

Weather History for KDBQ - January, 2014

Change the Weather History Date:

Tuesday, January 7, 2014

  Actual Average Record
Temperature  
Mean Temperature -6 °F 19 °F  
Max Temperature 3 °F 26 °F 51 °F (1949)
Min Temperature -16 °F 11 °F -32 °F (1887)
Degree Days  
Heating Degree Days 71 46  
Month to date heating degree days 446 322  
Since 1 July heating degree days 3571 3132  
Cooling Degree Days 0 0  
Month to date cooling degree days 0 0  
Year to date cooling degree days 0 0  
Moisture  
Dew Point -13 °F    
Average Humidity 74    
Maximum Humidity 83    
Minimum Humidity 65    
Precipitation  
Precipitation 0.00 in 0.04 in 0.78 in (1973)
Month to date precipitation 0.05 0.28  
Year to date precipitation 0.05 0.28  
Snow  
Snow 0.00 in 0.40 in - ()
Month to date snowfall 0.9 2.3  
Since 1 July snowfall 23.2 16.9  
Snow Depth 7.00 in    
Sea Level Pressure  
Sea Level Pressure 30.29 in    
Wind  
Wind Speed 6 mph (SW)    
Max Wind Speed 15 mph    
Max Gust Speed 20 mph    
Visibility 10 miles    
Events      
T = Trace of Precipitation, MM = Missing Value Source: NWS Daily Summary

Daily Weather History Graph

Daily Weather History Graph

Search for Another Location

Airport or City:

Trip Planner

Search our weather history database for the weather conditions in past years. The results will help you decide how hot, cold, wet, or windy it might be!

Date:

Astronomy

Jan. 07, 2014 Rise Set
Actual Time 7:32 AM CST 4:46 PM CST
Civil Twilight 7:00 AM CST 5:18 PM CST
Nautical Twilight 6:25 AM CST 5:53 PM CST
Astronomical Twilight 5:51 AM CST 6:27 PM CST
Moon 11:11 AM CST (1/7) No Moon Set
Length of Visible Light 10h 17m
Length of Day
9h 14m
Waxing Crescent, 46% of the Moon is Illuminated
Jan 7
Waxing Crescent
Jan 7
First Quarter
Jan 15
Full
Jan 23
Last Quarter
Jan 30
New

Hourly Weather History & Observations

Time (CST) Temp. Windchill Dew Point Humidity Pressure Visibility Wind Dir Wind Speed Gust Speed Precip Events Conditions
12:53 AM -14.1 °F -33.7 °F -20.0 °F 75% 30.30 in 10.0 mi West 10.4 mph - N/A   Clear
1:53 AM -13.0 °F -33.4 °F -18.9 °F 75% 30.29 in 10.0 mi WNW 11.5 mph - N/A   Clear
2:53 AM -13.0 °F -34.3 °F -18.9 °F 75% 30.30 in 10.0 mi West 12.7 mph - N/A   Clear
3:53 AM -14.1 °F -31.3 °F -20.0 °F 75% 30.30 in 10.0 mi WSW 8.1 mph - N/A   Clear
4:53 AM -15.0 °F -33.7 °F -20.0 °F 78% 30.30 in 10.0 mi WSW 9.2 mph - N/A   Clear
5:53 AM -15.0 °F -29.3 °F -20.0 °F 78% 30.30 in 10.0 mi SW 5.8 mph - N/A   Clear
6:53 AM -13.0 °F -31.3 °F -18.0 °F 78% 30.30 in 10.0 mi WSW 9.2 mph - N/A   Scattered Clouds
7:53 AM -11.0 °F -28.8 °F -16.1 °F 78% 30.30 in 10.0 mi WSW 9.2 mph - N/A   Scattered Clouds
8:53 AM -8.0 °F -19.2 °F -15.0 °F 71% 30.30 in 10.0 mi WSW 4.6 mph - N/A   Partly Cloudy
9:53 AM -7.1 °F -25.0 °F -13.0 °F 75% 30.32 in 10.0 mi SW 10.4 mph - N/A   Overcast
10:53 AM -4.0 °F -21.2 °F -11.0 °F 72% 30.32 in 10.0 mi SW 10.4 mph - N/A   Mostly Cloudy
11:53 AM -2.9 °F -13.3 °F -9.9 °F 72% 30.29 in 10.0 mi SW 4.6 mph - N/A   Partly Cloudy
12:53 PM -0.9 °F -11.0 °F -9.0 °F 69% 30.25 in 10.0 mi SSW 4.6 mph - N/A   Overcast
1:53 PM 1.0 °F -8.7 °F -8.0 °F 66% 30.24 in 10.0 mi South 4.6 mph - N/A   Overcast
2:53 PM 1.9 °F -7.6 °F -7.1 °F 66% 30.23 in 10.0 mi ESE 4.6 mph - N/A   Partly Cloudy
3:53 PM 1.9 °F -7.6 °F -6.0 °F 69% 30.25 in 10.0 mi South 4.6 mph - N/A   Clear
4:53 PM -0.9 °F -12.7 °F -8.0 °F 72% 30.26 in 10.0 mi South 5.8 mph - N/A   Clear
5:53 PM -2.0 °F -12.2 °F -9.0 °F 72% 30.29 in 10.0 mi SSE 4.6 mph - N/A   Clear
6:53 PM -2.9 °F -15.0 °F -9.0 °F 75% 30.31 in 10.0 mi South 5.8 mph - N/A   Clear
7:53 PM -4.0 °F - -9.0 °F 79% 30.31 in 10.0 mi Calm Calm - N/A   Clear
8:53 PM -5.1 °F -13.6 °F -9.9 °F 80% 30.32 in 10.0 mi South 3.5 mph - N/A   Clear
9:53 PM -5.1 °F - -9.9 °F 80% 30.33 in 10.0 mi Calm Calm - N/A   Clear
10:53 PM -7.1 °F - -11.0 °F 83% 30.32 in 10.0 mi Calm Calm - N/A   Clear
11:53 PM -8.0 °F - -11.9 °F 83% 30.32 in 10.0 mi Calm Calm - N/A   Unknown